This is the latest recevied weather packets stored in our database for station/object K6CED. If no packets are shown the sender has not sent any weather packets the latest 10 day(s).
| Time | Temp. | Humidity | Pressure | Rain* | Wind** | Luminosity | Snow |
|---|---|---|---|---|---|---|---|
| 1777918946 | 16.67° C | 59% | 1018.2 hPa | 0 mm | - | 219 W/m² | - |
| 1777918644 | 16.67° C | 59% | 1018.4 hPa | 0 mm | - | 177 W/m² | - |
| 1777918341 | 16.67° C | 59% | 1018.4 hPa | 0 mm | - | 283 W/m² | - |
| 1777918040 | 16.67° C | 59% | 1018.4 hPa | 0 mm | - | 489 W/m² | - |
| 1777917739 | 16.67° C | 61% | 1018.3 hPa | 0 mm | - | 505 W/m² | - |
| 1777917436 | 16.11° C | 60% | 1018.1 hPa | 0 mm | - | 374 W/m² | - |
| 1777917132 | 16.11° C | 61% | 1018.1 hPa | 0 mm | - | 324 W/m² | - |
| 1777916830 | 16.11° C | 64% | 1017.9 hPa | 0 mm | - | 257 W/m² | - |
| 1777916528 | 15.56° C | 64% | 1018.3 hPa | 0 mm | - | 242 W/m² | - |
| 1777916224 | 15.56° C | 65% | 1018 hPa | 0 mm | - | 186 W/m² | - |
| 1777915922 | 15.56° C | 65% | 1018.1 hPa | 0 mm | - | 148 W/m² | - |
| 1777915618 | 15.56° C | 64% | 1018 hPa | 0 mm | - | 184 W/m² | - |
| 1777915314 | 15.56° C | 64% | 1018 hPa | 0 mm | - | 278 W/m² | - |
| 1777915010 | 15.56° C | 65% | 1017.9 hPa | 0 mm | - | 249 W/m² | - |
| 1777914708 | 15.56° C | 67% | 1017.9 hPa | 0 mm | - | 247 W/m² | - |
| 1777914405 | 15° C | 68% | 1017.8 hPa | 0 mm | - | 158 W/m² | - |
| 1777914102 | 15.56° C | 64% | 1017.8 hPa | 0 mm | - | 184 W/m² | - |
| 1777913798 | 15.56° C | 62% | 1017.7 hPa | 0 mm | - | 228 W/m² | - |
| 1777913494 | 15.56° C | 65% | 1017.8 hPa | 0 mm | - | 263 W/m² | - |
| 1777913191 | 15.56° C | 65% | 1017.8 hPa | 0 mm | - | 318 W/m² | - |
| 1777912887 | 15.56° C | 64% | 1017.8 hPa | 0 mm | - | 230 W/m² | - |
| 1777912584 | 16.11° C | 65% | 1017.7 hPa | 0 mm | - | 573 W/m² | - |
| 1777912280 | 15.56° C | 65% | 1017.9 hPa | 0 mm | - | 755 W/m² | - |
| 1777911976 | 15.56° C | 66% | 1017.8 hPa | 0 mm | - | 307 W/m² | - |
| 1777911673 | 15.56° C | 67% | 1017.7 hPa | 0 mm | - | 759 W/m² | - |
* Rain latest hour (hover to see other rain measurements)
** Current wind speed in m/s (hover to see current wind gust speed)